User: anonymous   Login
Location: Ferchesar
(52.6477°N, 12.4298°E)
Time: 04:12:58
(UTC+01:00)
Language:

A-11 Canister half - Orbit

View from above orbital plane
View from above orbital plane
View from above satellite
View from above satellite

Ground track
Ground track

The orbit data is extracted from the following two-line orbital elements,

1 00053U 60009E   22330.56488855 -.00000004  00000-0  78504-3 0  9994
2 00053  47.2795  27.7894 0100710 197.9708 161.7507 12.17285168777235
Epoch (UTC): 26 November 2022 13:33:26
Eccentricity: 0.0100710
inclination: 47.2795°
perigee height: 1524 km
apogee height: 1685 km
right ascension of ascending node: 27.7894°
argument of perigee: 197.9708°
revolutions per day: 12.17285168
mean anomaly at epoch: 161.7507°
orbit number at epoch: 77723

The dashed part of the orbit path shows where the satellite is in the earth's shadow,  

DLR